Regional Weather Roundup
Issued by NWS Upton, NY

Current Version | Previous Version | Graphics & Text | Print | Product List | Glossary Off
Versions: 1 2 3 4 5 6 7 8 9 10 11 12 13 14 15 16 17 18 19 20 21 22 23 24 25 26 27

000
ASUS41 KOKX 151408
RWROKX

REGIONAL WEATHER ROUNDUP
NATIONAL WEATHER SERVICE NEW YORK NY
900 AM EST SUN JAN 15 2017

NOTE: "FAIR" INDICATES FEW OR NO CLOUDS BELOW 12,000 FEET WITH NO
SIGNIFICANT WEATHER AND/OR OBSTRUCTIONS TO VISIBILITY.

NYZ071-072-176-178-NJZ106-104-151500-
NEW YORK CITY METRO AREA

CITY           SKY/WX    TMP DP  RH WIND       PRES   REMARKS
Central Park   SUNNY     31  20  63 VRB3      30.38R
Wall St Helipt SUNNY     34  23  64 W9        30.38R WCI  27
Bronx Bot Gard NOT AVBL
LaGuardia APRT MOSUNNY   34  21  59 NW12      30.37R WCI  25
Kennedy INTL   MOSUNNY   33  20  58 NW9       30.38R WCI  25
Breezy Point     N/A     32 N/A N/A NW8         N/A  WCI  25
Newark/Liberty MOSUNNY   32  20  61 NW6       30.38R WCI  26
Teterboro      SUNNY     33  21  61 NW6       30.36R WCI  28
$$

NYZ177-179-078>081-151500-
LONG ISLAND NEW YORK

CITY           SKY/WX    TMP DP  RH WIND       PRES   REMARKS
Jones Beach      N/A     32 N/A N/A N9          N/A  WCI  24
Matinecock PT    N/A     32 N/A N/A NE10        N/A  WCI  24
Farmingdale    SUNNY     31  23  72 N9        30.36R WCI  23
MacArthur/ISP  MOSUNNY   31  23  72 N10       30.34R WCI  22
Shirley        SUNNY     30  24  78 N7        30.35R WCI  23
Westhampton    SUNNY     30  22  72 N10       30.35R WCI  21
Southampton    NOT AVBL
Bridgehampton  NOT AVBL
East Hampton     N/A     31  19  63 N12       30.33R WCI  21
Montauk          N/A     32  22  66 NW15      30.33R WCI  22
$$

NYZ052-065-067-151500-
HUDSON VALLEY

CITY           SKY/WX    TMP DP  RH WIND       PRES   REMARKS
White Plains   SUNNY     29  21  72 NW6       30.33R WCI  23
Newburgh       SUNNY     23  23 100 CALM      30.35R
Montgomery     SUNNY     30  20  66 W7        30.32R WCI  23
Poughkeepsie   SUNNY     22  19  89 CALM      30.36R FOG
Albany         MOSUNNY   28  19  69 NW9       30.34R WCI  19
$$

NJZ001-105-106-008-010-013-015-019>022-104-151500-
NEW JERSEY

CITY           SKY/WX    TMP DP  RH WIND       PRES   REMARKS
Newark/Liberty MOSUNNY   32  20  61 NW6       30.38R WCI  26
Teterboro      SUNNY     33  21  61 NW6       30.36R WCI  28
Caldwell       SUNNY     31  20  63 NW6       30.37R WCI  25
Somerville     SUNNY     30  22  72 N6        30.37R WCI  24
Linden           N/A     31  20  65 CALM      30.39R
Sussex         MIX PCPN  25  21  85 CALM      30.35R
Andover          N/A     25  21  85 N5        30.36R WCI  19
Trenton        SUNNY     31  25  78 N6        30.39R WCI  25
Millville      SUNNY     33  30  88 N7        30.39R FOG     WCI  27
Atlantic City  SUNNY     34  28  79 NW12      30.37R WCI  25
Wrightstown    SUNNY     32  26  80 NW10      30.36R WCI  23
Toms River     SUNNY     31  27  85 N9G17     30.38R WCI  23
Belmar         SUNNY     31  28  89 NW12      30.38R WCI  22
$$

PAZ047>061-062-071-151500-
EASTERN PENNSYLVANIA

CITY           SKY/WX    TMP DP  RH WIND       PRES   REMARKS
Philadelphia   MOSUNNY   33  25  72 N9        30.42R WCI  25
Allentown      SUNNY     27  21  78 CALM      30.40R
Scranton       PTSUNNY   25  18  74 CALM      30.36R
$$

CTZ002-004>006-009-010-012-RIZ004-006-007-MAZ004-011-015-151500-
SOUTHERN NEW ENGLAND
 IN CT

CITY           SKY/WX    TMP DP  RH WIND       PRES   REMARKS
Bradley INTL   MOSUNNY   31  18  58 NW5       30.32R WCI  26
Hartford       SUNNY     30  20  66 N7        30.34R WCI  23
Danbury        SUNNY     24  21  88 CALM      30.34R
Wtrbury/Oxford MOSUNNY   28  16  59 N15G22    30.30R WCI  17
Bridgeport     SUNNY     29  22  75 W3        30.35R
Meriden        SUNNY     32  20  61 N8        30.33R WCI  25
New Haven      SUNNY     28  26  92 CALM      30.34R
Chester          N/A     28  18  64 NW9G17    30.30R WCI  20
Groton         SUNNY     31  20  63 N13       30.32R WCI  21
Wilimantic     SUNNY     31  20  63 N9        30.32R WCI  23

 IN RI

CITY           SKY/WX    TMP DP  RH WIND       PRES   REMARKS
Providence     SUNNY     31  19  61 N8        30.31R WCI  23
Block Island   NOT AVBL
Westerly       SUNNY     30  20  66 NW7       30.31R WCI  23
 IN MA

CITY           SKY/WX    TMP DP  RH WIND       PRES   REMARKS
Boston         SUNNY     30  17  58 NW8       30.30R WCI  22
Worcester      SUNNY     24  16  71 W9        30.25R WCI  14
Westfield      SUNNY     30  18  60 N8        30.31R WCI  22
Provincetown   SUNNY     34  20  56 NW15G25   30.28R WCI  24
Nantucket      SUNNY     33  23  66 NW17      30.26R WCI  22
$$

ANZ330-335-338-340-345-350-353-355-151500-
COASTAL MARINE OBSERVATIONS


STATION/POSITION TIME  SKY/WX   TEMP    WIND        PRES    VSBY  WAVE
                                AIR SEA DIR/SP/G                  HT/PER
                 (UTC)          (F)     (DEG/KT/KT) (MB)    (MI)  (FT/S)
NY HARB ENTRANCE 1250            35 44  330/ 12/ 16 1026.9          2/11
20 S FIRE ISLAND 1250            35 45  350/ 14/ 17 1026.3          3/ 4
GREAT SOUTH BAY  NOT AVBL
23 SSW MONTAUK P 1250            34 47  320/ 19/ 23 1025.9          3/ 4
15 E BARNEGAT LI 1330               46                N/A           4/11
HUDSON CANYON    1250            42 53              1025.3          4/ 5
KINGS POINT      1342            31 37              1028.0
EXECUTION ROCKS  1345            36     360/  6/  8   N/A
CENTRAL LI SOUND 1315            31     340/ 12/ 14   N/A           1/ 3
EASTERN LI SOUND NOT AVBL
ROBBINS REEF     1348            31     340/  9/ 11 1028.7
$$


>>>>>>>>>>>>>>>>>>>>>>>>>>>> KEY <<<<<<<<<<<<<<<<<<<<<<<<<<<
>                                                          <
>     SKY/WX - Sky Condition/Present Weather               <
>     TMP    - Temperature in Fahrenheit                   <
>     DP     - Dew Point in Fahrenheit                     <
>     RH     - Relative Humidity in Percent                <
>     WIND   - Direction (from) and Speed in MPH           <
>     PRES   - Mean Sea Level Pressure (inches of Hg)      <
>     WCI    - Wind Chill Index                            <
>     VSB    - VISIBILITY IN MILES                         <
>     HX     - HEAT INDEX                                  <
>     TC     - TEMPERATURE IN CELSIUS                      <
>     VRB    - VARIABLE WIND DIRECTION                     <
>                                                          <
>>>>>>>>>>>>>>>>>>>>>>>>>>>> KEY <<<<<<<<<<<<<<<<<<<<<<<<<<<




USA.gov is the U.S. government's official web portal to all federal, state and local government web resources and services.